Erzurum, Turkey

2:47 AM +03 on June 29, 2017 (GMT +0300)
Erzurum

Weather History for LTCE - April, 2013

Change the Weather History Date:

Saturday, April 6, 2013

  Actual Average Record
Temperature  
Mean Temperature 50 °F -  
Max Temperature 66 °F 53 °F 66 °F (2013)
Min Temperature 34 °F 34 °F 15 °F (2004)
Degree Days  
Heating Degree Days 15    
Moisture  
Dew Point 35 °F    
Average Humidity 59    
Maximum Humidity 93    
Minimum Humidity 19    
Precipitation  
Precipitation 0.00 in 0.07 in - ()
Sea Level Pressure  
Sea Level Pressure 30.06 in    
Wind  
Wind Speed 5 mph ()    
Max Wind Speed 12 mph    
Max Gust Speed -    
Visibility 7.2 miles    
Events      
Averages and records for this station are not official NWS values.
T = Trace of Precipitation, MM = Missing Value Source: Averaged Metar Reports

Daily Weather History Graph

Daily Weather History Graph

Search for Another Location

Airport or City:

Trip Planner

Search our weather history database for the weather conditions in past years. The results will help you decide how hot, cold, wet, or windy it might be!

Date:

Astronomy

Apr. 06, 2013 Rise Set
Actual Time 5:51 AM EEST 6:44 PM EEST
Civil Twilight 5:24 AM EEST 7:12 PM EEST
Nautical Twilight 4:51 AM EEST 7:44 PM EEST
Astronomical Twilight 4:17 AM EEST 8:18 PM EEST
Moon 3:22 AM EEST (4/6) 2:50 PM EEST (4/6)
Length of Visible Light 13h 48m
Length of Day
12h 53m
Waning Crescent, 17% of the Moon is Illuminated
Apr 6
Waning Crescent
Apr 10
New
Apr 18
First Quarter
Apr 25
Full
May 2
Last Quarter

Hourly Weather History & Observations

Time (EEST) Temp. Windchill Dew Point Humidity Pressure Visibility Wind Dir Wind Speed Gust Speed Precip Events Conditions
12:20 AM 46.4 °F 42.9 °F 41.0 °F 81% 30.04 in 6.2 mi East 6.9 mph - N/A   Mostly Cloudy
12:50 AM 44.6 °F 40.2 °F 39.2 °F 81% 30.01 in 6.2 mi East 8.1 mph - N/A   Mostly Cloudy
1:20 AM 42.8 °F 40.1 °F 39.2 °F 87% 30.04 in 6.2 mi NNW 4.6 mph - N/A   Mostly Cloudy
1:50 AM 42.8 °F 38.6 °F 39.2 °F 87% 30.01 in 6.2 mi NE 6.9 mph - N/A   Scattered Clouds
2:20 AM 41.0 °F 39.0 °F 37.4 °F 87% 30.01 in 6.2 mi NE 3.5 mph - N/A   Scattered Clouds
3:00 AM 39 °F - 36 °F 84%  in 12 mi West 8.1 mph - -   Scattered Clouds
3:20 AM 41.0 °F 34.3 °F 35.6 °F 81% 30.04 in 6.2 mi West 11.5 mph - N/A   Partly Cloudy
3:50 AM 39.2 °F 34.2 °F 35.6 °F 87% 30.04 in 6.2 mi WSW 6.9 mph - N/A   Partly Cloudy
4:20 AM 37.4 °F 32.1 °F 33.8 °F 87% 30.04 in 6.2 mi WSW 6.9 mph - N/A   Partly Cloudy
4:50 AM 35.6 °F - 33.8 °F 93% 30.04 in - Calm Calm - N/A   Clear
5:20 AM 37.4 °F 34.9 °F 35.6 °F 93% 30.04 in - SSW 3.5 mph - N/A   Clear
5:50 AM 35.6 °F 31.7 °F 33.8 °F 93% 30.04 in - East 4.6 mph - N/A   Clear
6:20 AM 35.6 °F - 33.8 °F 93% 30.06 in - Variable 2.3 mph - N/A   Clear
6:50 AM 35.6 °F - 33.8 °F 93% 30.06 in - Calm Calm - N/A   Clear
7:20 AM 39.2 °F - 37.4 °F 93% 30.09 in - Variable 2.3 mph - N/A   Clear
7:50 AM 42.8 °F 40.1 °F 37.4 °F 81% 30.09 in - West 4.6 mph - N/A   Clear
8:20 AM 46.4 °F 43.5 °F 37.4 °F 71% 30.09 in - WSW 5.8 mph - N/A   Clear
8:50 AM 48.2 °F - 39.2 °F 71% 30.12 in - West 8.1 mph - N/A   Clear
9:00 AM 48 °F - 37 °F 56%  in 12 mi West 8.1 mph - -  
9:20 AM 50.0 °F - 37.4 °F 62% 30.12 in - West 5.8 mph - N/A   Clear
9:50 AM 53.6 °F - 37.4 °F 54% 30.09 in - West 6.9 mph - N/A   Clear
10:20 AM 55.4 °F - 37.4 °F 51% 30.09 in - Variable 3.5 mph - N/A   Clear
10:50 AM 57.2 °F - 37.4 °F 48% 30.09 in - Variable 3.5 mph - N/A   Clear
11:20 AM 57.2 °F - 37.4 °F 48% 30.06 in - ESE 3.5 mph - N/A   Clear
11:50 AM 59.0 °F - 37.4 °F 45% 30.06 in - Variable 4.6 mph - N/A   Clear
12:20 PM 60.8 °F - 35.6 °F 39% 30.06 in - Variable 4.6 mph - N/A   Clear
12:50 PM 62.6 °F - 33.8 °F 34% 30.06 in - Variable 4.6 mph - N/A   Clear
1:20 PM 60.8 °F - 35.6 °F 39% 30.06 in 6.2 mi Variable 5.8 mph - N/A   Partly Cloudy
1:50 PM 62.6 °F - 33.8 °F 34% 30.04 in 6.2 mi NNW 5.8 mph - N/A   Partly Cloudy
2:20 PM 62.6 °F - 33.8 °F 34% 30.04 in 6.2 mi Variable 5.8 mph - N/A   Partly Cloudy
2:50 PM 66.2 °F - 32.0 °F 28% 30.04 in 6.2 mi Variable 5.8 mph - N/A   Partly Cloudy
3:00 PM 66 °F - 33 °F 19%  in 12 mi South 5.8 mph - -   Scattered Clouds
3:20 PM 66.2 °F - 32.0 °F 28% 30.04 in 6.2 mi Variable 3.5 mph - N/A   Partly Cloudy
3:50 PM 64.4 °F - 33.8 °F 32% 30.04 in 6.2 mi NE 5.8 mph - N/A   Partly Cloudy
4:20 PM 66.2 °F - 33.8 °F 30% 30.04 in 6.2 mi North 4.6 mph - N/A   Partly Cloudy
4:50 PM 66.2 °F - 32.0 °F 28% 30.04 in 6.2 mi Variable 2.3 mph - N/A   Partly Cloudy
5:20 PM 66.2 °F - 28.4 °F 24% 30.04 in 6.2 mi NNW 10.4 mph - N/A   Partly Cloudy
5:50 PM 60.8 °F - 32.0 °F 34% 30.04 in 6.2 mi North 10.4 mph - N/A   Partly Cloudy
6:20 PM 59.0 °F - 35.6 °F 42% 30.04 in 6.2 mi North 9.2 mph - N/A   Partly Cloudy
6:50 PM 57.2 °F - 33.8 °F 41% 30.06 in - North 4.6 mph - N/A   Clear
7:20 PM 53.6 °F - 33.8 °F 47% 30.06 in - NNE 4.6 mph - N/A   Clear
7:50 PM 53.6 °F - 32.0 °F 44% 30.06 in - Variable 2.3 mph - N/A   Clear
8:20 PM 50.0 °F - 32.0 °F 50% 30.09 in - WSW 5.8 mph - N/A   Clear
8:50 PM 48.2 °F - 33.8 °F 58% 30.09 in - SSW 4.6 mph - N/A   Clear
9:00 PM 48 °F - 34 °F 48%  in 12 mi SSW 4.6 mph - -  
9:20 PM 48.2 °F - 32.0 °F 54% 30.06 in - SSW 4.6 mph - N/A   Clear
9:50 PM 44.6 °F 41.4 °F 32.0 °F 61% 30.06 in - SSW 5.8 mph - N/A   Clear
10:20 PM 42.8 °F 38.6 °F 32.0 °F 66% 30.09 in - SSW 6.9 mph - N/A   Clear
10:50 PM 42.8 °F 40.1 °F 32.0 °F 66% 30.09 in - SSW 4.6 mph - N/A   Clear
11:20 PM 42.8 °F - 32.0 °F 66% 30.09 in - Calm Calm - N/A   Clear
11:50 PM 42.8 °F - 32.0 °F 66% 30.12 in - Calm Calm - N/A   Clear